Weather in Zaluzhnoye

Russia / Voronezh Oblast     50°57′04″N   39°31′28″E
temp.,
°C
wind,
m/s
gust,
m/s
humid.,
%
clouds,
%
prec.,
mm/h
press.,
hPa
HPBL,
m
7 march, sun
sun700:00−5wnw47690 0.0 1020662
03:00−5w48770 0.0 1020603
06:00−6wsw48880 0.0 1019342
09:00−4wsw610829 0.0 1017795
12:00−2wsw8126095 0.0 10151137
15:000sw10155097 0.0 10111183
18:00−1sw91757100 0.0 10081234
21:00−1wsw101876100 0.0 10061163
8 march, mon
mon800:00−1wsw101686100 0.2 1006989
03:00−1w6129699 0.8 1006674
06:00−2wsw2697100 2.0 1006361
09:00−1wsw81292100 2.9 1005935
12:000w71196100 0.8 1006824
15:000wnw698096 1.6 10061102
18:00−2wnw5107991 0.1 1007588
21:00−4wnw398470 0.1 1009471
9 march, tue
tue900:00−4wnw378721 0.0 1010355
03:00−4w369360 0.1 1011432
06:00−5nw3592100 0.2 1012401
09:00−6nw4583100 0.4 1014535
12:00−5nw457596 0.0 1015866
15:00−4nw567098 0.1 10161036
18:00−6nw5774100 0.1 1017943
21:00−7nw5778100 0.2 1020753
10 march, wed
wed1000:00−8nnw467787 0.0 1021791
03:00−9nw458293 0.1 1022698
06:00−10nw4584100 0.1 1024550
09:00−10nw467987 0.1 1025570
12:00−9nnw456169 0.0 1026874
15:00−7nnw445060 0.0 10261008
18:00−8nnw345684 0.0 1026777
21:00−10ne337163 0.0 1028365
11 march, thu
thu1100:00−11ene347788 0.0 1029323
03:00−12ene237965 0.0 1030246
06:00−13e238022 0.0 1030198
09:00−12ese336617 0.0 1031307
12:00−9sse225032 0.0 1031580
15:00−6sse334932 0.0 1030725
18:00−6sse24590 0.0 1029181
21:00−7sse48600 0.0 1030240